User: anonymous   Login
Location: Unspecified
(0.0000°N, 0.0000°E)
Time: 20:24:46
(UTC+02:00)
Language:

ISS - Orbit

View from above orbital plane
View from above orbital plane
View from above satellite
View from above satellite

Ground track
Ground track

The orbit data is extracted from the following two-line orbital elements,

1 25544U 98067A   16238.56759634  .00008390  00000-0  13289-3 0  9991
2 25544  51.6455  71.8205 0002923 237.0552 194.2778 15.54325716 15789
Epoch (UTC): 25 August 2016 13:37:20
Eccentricity: 0.0002923
inclination: 51.6455°
perigee height: 402 km
apogee height: 406 km
right ascension of ascending node: 71.8205°
argument of perigee: 237.0552°
revolutions per day: 15.54325716
mean anomaly at epoch: 194.2778°
orbit number at epoch: 1578

The dashed part of the orbit path shows where the satellite is in the earth's shadow,  

DLR